GW6496 Weather Reports


time (UTC)temp
F
wind
direction
speed
knots
gust
knots
rain 1hr
in
rain 24hr
in
rain mn
in
humidity
%
barometer
mb
20260506044452 66 70 0.9 0.9 0.00 0.00 0.00 68 1014.0
20260506043948 66 112 0.9 1.7 0.00 0.00 0.00 65 1014.1
20260506043446 66 108 0.9 1.7 0.00 0.00 0.00 65 1014.1
20260506042944 66 110 0.9 1.7 0.00 0.00 0.00 65 1014.2
20260506042443 66 109 0.9 1.7 0.00 0.00 0.00 69 1014.3
20260506041940 66 38 0.0 0.9 0.00 0.00 0.00 67 1014.3
20260506041438 66 89 0.0 0.9 0.00 0.00 0.00 65 1014.0
20260506040935 66 89 0.0 1.7 0.00 0.00 0.00 68 1014.0
20260506040433 66 76 0.9 1.7 0.00 0.00 0.00 68 1014.2
20260506035928 66 70 0.9 1.7 0.00 0.00 0.00 68 1014.1
20260506035426 65 97 0.0 1.7 0.00 0.00 0.00 70 1014.1
20260506034923 65 93 1.7 1.7 0.00 0.00 0.00 68 1014.1
20260506034420 65 50 0.9 1.7 0.00 0.00 0.00 67 1014.0
20260506033917 65 97 0.0 0.9 0.00 0.00 0.00 66 1014.0
20260506033414 65 55 0.9 1.7 0.00 0.00 0.00 67 1014.0
20260506032911 65 116 0.0 0.9 0.00 0.00 0.00 66 1014.0
20260506032408 65 103 0.9 1.7 0.00 0.00 0.00 68 1014.3
20260506031905 65 47 0.9 0.9 0.00 0.00 0.00 68 1014.1
20260506031402 65 103 0.0 1.7 0.00 0.00 0.00 67 1014.3
20260506030859 65 47 1.7 1.7 0.00 0.00 0.00 66 1014.2
20260506030358 65 89 0.0 0.9 0.00 0.00 0.00 65 1014.2
20260506025854 65 99 0.0 1.7 0.00 0.00 0.00 65 1014.4
20260506025351 65 79 0.9 1.7 0.00 0.00 0.00 65 1014.4
20260506024848 65 113 0.0 0.9 0.00 0.00 0.00 64 1014.3
20260506024345 65 67 0.9 1.7 0.00 0.00 0.00 65 1014.2
20260506023840 65 56 0.9 1.7 0.00 0.00 0.00 66 1014.3
20260506023337 65 33 0.9 1.7 0.00 0.00 0.00 66 1013.9
20260506022834 65 58 0.9 1.7 0.00 0.00 0.00 64 1014.1
20260506022332 65 40 1.7 1.7 0.00 0.00 0.00 67 1014.0
20260506021830 65 65 0.9 1.7 0.00 0.00 0.00 64 1013.9
20260506021327 65 46 0.9 1.7 0.00 0.00 0.00 66 1014.0
20260506020823 65 44 1.7 1.7 0.00 0.00 0.00 65 1014.1
20260506020321 65 39 0.9 1.7 0.00 0.00 0.00 67 1014.0
20260506015819 66 31 1.7 1.7 0.00 0.00 0.00 67 1014.0
20260506015316 66 33 1.7 1.7 0.00 0.00 0.00 67 1014.0
20260506014812 65 45 0.9 0.9 0.00 0.00 0.00 65 1013.8
20260506014309 66 45 0.9 1.7 0.00 0.00 0.00 65 1013.8
20260506013806 66 39 0.9 1.7 0.00 0.00 0.00 63 1013.9
20260506013303 66 34 1.7 1.7 0.00 0.00 0.00 65 1013.8
20260506012800 66 25 0.9 1.7 0.00 0.00 0.00 66 1013.8
20260506012257 66 54 0.0 1.7 0.00 0.00 0.00 63 1013.7
20260506011754 66 40 0.9 1.7 0.00 0.00 0.00 62 1013.6
20260506011250 67 42 0.9 0.9 0.00 0.00 0.00 62 1013.7
20260506010748 67 38 0.0 1.7 0.00 0.00 0.00 61 1013.7
20260506010246 67 27 1.7 1.7 0.00 0.00 0.00 61 1013.8
20260506005743 68 55 0.0 0.0 0.00 0.00 0.00 59 1013.4
20260506005239 68 89 0.0 0.9 0.00 0.00 0.00 61 1013.6
20260506004735 68 38 0.0 0.9 0.00 0.00 0.00 60 1013.7
20260506004233 68 45 0.0 0.9 0.00 0.00 0.00 59 1013.6
20260506003729 69 33 0.9 0.9 0.00 0.00 0.00 59 1013.3
20260506003226 69 63 0.0 0.9 0.00 0.00 0.00 57 1013.6
20260506002721 69 42 0.0 0.9 0.00 0.00 0.00 60 1013.6
20260506002218 69 18 0.9 1.7 0.00 0.00 0.00 57 1013.4
20260506001714 70 16 0.9 1.7 0.00 0.00 0.00 56 1013.6
20260506001212 71 354 0.0 1.7 0.00 0.00 0.00 55 1013.3
20260506000708 72 16 0.9 1.7 0.00 0.00 0.00 56 1013.4
20260506000206 72 31 0.0 0.9 0.00 0.00 0.00 53 1013.6
20260505235703 72 157 0.0 1.7 0.00 0.00 0.00 53 1013.3
20260505235201 72 60 0.0 0.9 0.00 0.00 0.00 53 1013.6
20260505234657 73 16 0.0 0.9 0.00 0.00 0.00 53 1013.4
20260505234154 73 68 0.9 1.7 0.00 0.00 0.00 51 1013.4
20260505233651 74 50 0.0 0.9 0.00 0.00 0.00 48 1013.6
20260505233148 73 206 1.7 1.7 0.00 0.00 0.00 47 1013.3
20260505232646 74 97 0.9 1.7 0.00 0.00 0.00 48 1013.4
20260505232144 74 16 1.7 1.7 0.00 0.00 0.00 47 1013.6
20260505231640 74 10 0.9 1.7 0.00 0.00 0.00 50 1013.4
20260505231139 74 62 0.0 0.9 0.00 0.00 0.00 44 1013.8
20260505230637 75 101 0.0 1.7 0.00 0.00 0.00 42 1013.7
20260505230133 75 51 1.7 3.5 0.00 0.00 0.00 42 1013.8
20260505225629 75 127 0.0 3.5 0.00 0.00 0.00 43 1013.8
20260505225126 75 99 0.0 2.6 0.00 0.00 0.00 44 1013.7
20260505224622 76 89 0.9 1.7 0.00 0.00 0.00 42 1013.7
20260505224120 76 68 1.7 3.5 0.00 0.00 0.00 39 1013.8
20260505223617 77 252 2.6 3.5 0.00 0.00 0.00 39 1013.7
20260505223113 77 81 1.7 1.7 0.00 0.00 0.00 39 1013.7
20260505222609 78 235 0.0 3.5 0.00 0.00 0.00 41 1013.4
20260505222106 78 143 1.7 1.7 0.00 0.00 0.00 39 1013.4
20260505221603 77 278 1.7 5.2 0.00 0.00 0.00 38 1013.1
20260505221059 77 250 0.9 7.0 0.00 0.00 0.00 39 1013.4
20260505220557 78 94 0.9 1.7 0.00 0.00 0.00 40 1013.4
20260505220054 79 180 0.0 0.9 0.00 0.00 0.00 38 1013.6
20260505215552 80 118 1.7 2.6 0.00 0.00 0.00 37 1013.7
20260505215049 81 350 0.9 3.5 0.00 0.00 0.00 35 1013.7
20260505214547 80 42 0.0 3.5 0.00 0.00 0.00 35 1013.7
20260505214044 81 1 3.5 5.2 0.00 0.00 0.00 35 1013.7
20260505213542 80 297 0.0 4.3 0.00 0.00 0.00 37 1013.6
20260505213037 80 246 0.9 1.7 0.00 0.00 0.00 38 1013.7
20260505212534 80 103 1.7 3.5 0.00 0.00 0.00 39 1013.8
20260505212032 81 281 0.9 4.3 0.00 0.00 0.00 35 1013.8
20260505211529 80 274 2.6 3.5 0.00 0.00 0.00 35 1013.8
20260505211025 80 101 1.7 3.5 0.00 0.00 0.00 36 1013.9
20260505210522 81 52 0.0 1.7 0.00 0.00 0.00 36 1013.8
20260505210019 80 67 0.0 2.6 0.00 0.00 0.00 37 1014.0
20260505205517 81 348 0.9 5.2 0.00 0.00 0.00 38 1013.8
20260505205014 80 104 1.7 3.5 0.00 0.00 0.00 36 1013.8
20260505204512 80 71 5.2 6.1 0.00 0.00 0.00 35 1014.0
20260505204008 80 119 0.0 4.3 0.00 0.00 0.00 36 1013.9
20260505203505 79 111 1.7 5.2 0.00 0.00 0.00 35 1014.1
20260505203001 79 297 1.7 5.2 0.00 0.00 0.00 35 1014.1
20260505202458 79 71 2.6 4.3 0.00 0.00 0.00 36 1014.2
20260505201954 80 94 2.6 3.5 0.00 0.00 0.00 37 1014.3
20260505201451 80 262 4.3 4.3 0.00 0.00 0.00 36 1014.2
20260505200949 80 108 1.7 2.6 0.00 0.00 0.00 40 1014.2
20260505200447 80 253 0.9 3.5 0.00 0.00 0.00 40 1014.4
20260505195942 79 105 1.7 3.5 0.00 0.00 0.00 42 1014.6
20260505195439 78 262 2.6 5.2 0.00 0.00 0.00 41 1014.7
20260505194937 77 255 4.3 5.2 0.00 0.00 0.00 39 1014.8
20260505194434 77 41 0.9 7.8 0.00 0.00 0.00 41 1014.7
20260505193934 78 99 0.9 2.6 0.00 0.00 0.00 41 1014.8
20260505193432 78 109 3.5 3.5 0.00 0.00 0.00 41 1014.8
20260505192929 78 122 1.7 3.5 0.00 0.00 0.00 41 1014.8
20260505192427 78 205 0.0 1.7 0.00 0.00 0.00 42 1014.9
20260505191925 79 224 1.7 4.3 0.00 0.00 0.00 39 1014.6
20260505191424 79 126 1.7 3.5 0.00 0.00 0.00 40 1014.9
20260505190920 79 102 2.6 3.5 0.00 0.00 0.00 39 1015.0
20260505190415 80 119 0.0 2.6 0.00 0.00 0.00 38 1014.8
20260505185910 79 106 2.6 3.5 0.00 0.00 0.00 38 1014.9
20260505185408 79 287 1.7 2.6 0.00 0.00 0.00 42 1014.9
20260505184904 79 86 2.6 3.5 0.00 0.00 0.00 40 1015.1
20260505184401 78 35 0.0 3.5 0.00 0.00 0.00 43 1015.1
20260505183858 78 86 1.7 3.5 0.00 0.00 0.00 41 1015.1
20260505183355 79 77 2.6 5.2 0.00 0.00 0.00 40 1015.3
20260505182851 79 62 0.9 2.6 0.00 0.00 0.00 43 1015.2
20260505182348 79 94 3.5 5.2 0.00 0.00 0.00 41 1015.5
20260505181845 78 18 2.6 7.0 0.00 0.00 0.00 41 1015.5
20260505181342 78 61 1.7 5.2 0.00 0.00 0.00 41 1015.8
20260505180839 78 91 1.7 4.3 0.00 0.00 0.00 40 1015.5
20260505180335 79 81 3.5 4.3 0.00 0.00 0.00 41 1015.9
20260505175832 78 307 2.6 7.0 0.00 0.00 0.00 43 1015.8
20260505175328 77 297 0.9 3.5 0.00 0.00 0.00 41 1015.9
20260505174825 78 89 1.7 10.4 0.00 0.00 0.00 40 1015.9
20260505174322 78 74 1.7 5.2 0.00 0.00 0.00 40 1016.0
20260505173818 78 97 1.7 3.5 0.00 0.00 0.00 40 1016.1
20260505173314 78 212 0.9 2.6 0.00 0.00 0.00 40 1015.9
20260505172812 77 152 3.5 7.8 0.00 0.00 0.00 40 1016.1
20260505172310 77 118 1.7 2.6 0.00 0.00 0.00 45 1015.8
20260505171804 77 53 1.7 2.6 0.00 0.00 0.00 42 1016.2
20260505171301 77 65 1.7 3.5 0.00 0.00 0.00 43 1016.3
20260505170757 77 76 1.7 4.3 0.00 0.00 0.00 41 1016.1
20260505170255 77 66 1.7 4.3 0.00 0.00 0.00 39 1016.1
20260505165750 77 235 1.7 3.5 0.00 0.00 0.00 40 1015.9
20260505165246 78 111 0.0 3.5 0.00 0.00 0.00 43 1016.0
20260505164742 77 265 1.7 5.2 0.00 0.00 0.00 43 1016.1
20260505164239 76 35 0.0 4.3 0.00 0.00 0.00 42 1016.2
20260505163737 76 89 2.6 7.0 0.00 0.00 0.00 43 1016.2
20260505163236 76 79 1.7 4.3 0.00 0.00 0.00 41 1016.2
20260505162732 77 75 3.5 4.3 0.00 0.00 0.00 38 1016.2
20260505162229 76 48 0.9 5.2 0.00 0.00 0.00 42 1016.2
20260505161726 77 97 2.6 4.3 0.00 0.00 0.00 40 1016.3
20260505161224 77 230 1.7 3.5 0.00 0.00 0.00 40 1016.3
20260505160721 76 82 1.7 4.3 0.00 0.00 0.00 41 1016.4
20260505160219 75 78 1.7 4.3 0.00 0.00 0.00 44 1016.5
20260505153158 75 341 0.0 4.3 0.00 0.00 0.00 43 1016.4
20260505152655 76 95 2.6 2.6 0.00 0.00 0.00 45 1016.4
20260505152150 76 253 3.5 3.5 0.00 0.00 0.00 41 1016.5
20260505151646 75 56 1.7 1.7 0.00 0.00 0.00 46 1016.6
20260505151144 75 109 0.0 1.7 0.00 0.00 0.00 46 1016.9
20260505150639 74 227 0.9 1.7 0.00 0.00 0.00 45 1016.7
20260505150137 74 102 0.9 2.6 0.00 0.00 0.00 51 1016.6
20260505140605 62 120 0.0 2.6 0.00 0.00 0.00 70 1016.9
20260505125019 54 100 0.9 1.7 0.00 0.00 0.00 87 1016.3
20260505124515 54 112 1.7 1.7 0.00 0.00 0.00 87 1016.0
20260505124012 53 92 0.9 0.9 0.00 0.00 0.00 88 1016.1
20260505123508 53 105 1.7 1.7 0.00 0.00 0.00 88 1015.9
20260505123004 53 118 1.7 1.7 0.00 0.00 0.00 88 1016.1
20260505122502 52 100 0.9 0.9 0.00 0.00 0.00 90 1016.1
20260505121958 51 109 0.9 0.9 0.00 0.00 0.00 90 1016.1
20260505121455 51 92 0.9 1.7 0.00 0.00 0.00 91 1016.1
20260505120951 50 84 0.9 1.7 0.00 0.00 0.00 91 1016.1
20260505120448 50 106 0.9 1.7 0.00 0.00 0.00 91 1016.0
20260505115947 50 97 1.7 2.6 0.00 0.00 0.00 92 1016.0
20260505115443 49 109 0.9 2.6 0.00 0.00 0.00 92 1015.8
20260505114941 49 107 0.9 1.7 0.00 0.00 0.00 92 1015.8
20260505114437 49 102 1.7 1.7 0.00 0.00 0.00 92 1015.9
20260505113934 49 77 0.9 1.7 0.00 0.00 0.00 93 1015.6
20260505113430 48 133 0.9 2.6 0.00 0.00 0.00 93 1015.5
20260505112926 48 93 1.7 2.6 0.00 0.00 0.00 93 1015.5
20260505112424 48 95 1.7 1.7 0.00 0.00 0.00 93 1015.4
20260505111920 48 93 0.9 1.7 0.00 0.00 0.00 93 1015.2
20260505111415 48 103 1.7 1.7 0.00 0.00 0.00 93 1015.4
20260505110911 48 79 1.7 2.6 0.00 0.00 0.00 93 1015.6
20260505110409 48 89 0.0 1.7 0.00 0.00 0.00 93 1015.2
20260505101839 47 68 1.7 1.7 0.00 0.00 0.00 93 1015.1
20260505101334 47 50 1.7 1.7 0.00 0.00 0.00 93 1015.3
20260505100830 47 129 1.7 2.6 0.00 0.00 0.00 93 1015.4
20260505100327 48 97 1.7 2.6 0.00 0.00 0.00 93 1015.3
20260505095822 48 113 0.9 1.7 0.00 0.00 0.00 93 1015.1
20260505095320 48 106 0.0 1.7 0.00 0.00 0.00 93 1015.3
20260505094816 48 92 0.9 1.7 0.00 0.00 0.00 93 1015.1
20260505094313 48 89 0.9 1.7 0.00 0.00 0.00 93 1014.9
20260505093813 48 91 0.9 1.7 0.00 0.00 0.00 93 1015.1
20260505093312 48 89 0.9 1.7 0.00 0.00 0.00 93 1015.1
20260505092808 48 88 0.9 1.7 0.00 0.00 0.00 93 1015.2
20260505092307 48 86 1.7 1.7 0.00 0.00 0.00 93 1015.0
20260505091804 48 89 0.9 1.7 0.00 0.00 0.00 92 1015.1
20260505091302 48 89 1.7 1.7 0.00 0.00 0.00 92 1015.1
20260505090759 48 96 0.9 1.7 0.00 0.00 0.00 92 1015.4
20260505090258 48 94 0.9 1.7 0.00 0.00 0.00 92 1015.3
20260505085754 48 86 1.7 1.7 0.00 0.00 0.00 92 1015.4
20260505085253 49 89 0.9 0.9 0.00 0.00 0.00 91 1015.4
20260505084749 48 111 1.7 2.6 0.00 0.00 0.00 92 1015.2
20260505084244 49 92 0.9 1.7 0.00 0.00 0.00 91 1015.2
20260505083740 49 98 1.7 1.7 0.00 0.00 0.00 91 1015.3
20260505083237 49 99 0.9 0.9 0.00 0.00 0.00 91 1015.3
20260505082733 49 110 1.7 1.7 0.00 0.00 0.00 90 1015.5
20260505082230 49 111 0.9 1.7 0.00 0.00 0.00 90 1015.4
20260505081725 49 83 0.9 0.9 0.00 0.00 0.00 90 1015.6
20260505081223 49 111 1.7 1.7 0.00 0.00 0.00 90 1015.4
20260505080720 49 113 0.9 1.7 0.00 0.00 0.00 90 1015.2
20260505080215 50 94 0.9 1.7 0.00 0.00 0.00 90 1015.3
20260505075711 50 108 0.9 1.7 0.00 0.00 0.00 90 1015.5
20260505075209 50 103 1.7 1.7 0.00 0.00 0.00 90 1015.5
20260505074706 50 88 0.9 1.7 0.00 0.00 0.00 89 1015.4
20260505074203 50 72 0.9 1.7 0.00 0.00 0.00 89 1015.4
20260505073700 50 121 0.9 1.7 0.00 0.00 0.00 89 1015.4
20260505073158 50 87 0.9 1.7 0.00 0.00 0.00 89 1015.2
20260505072653 50 101 1.7 1.7 0.00 0.00 0.00 88 1015.4
20260505072150 50 89 0.0 1.7 0.00 0.00 0.00 88 1015.4
20260505071646 50 96 1.7 1.7 0.00 0.00 0.00 88 1015.3
20260505071144 50 110 0.9 1.7 0.00 0.00 0.00 87 1015.3
20260505070641 51 99 1.7 1.7 0.00 0.00 0.00 87 1015.3
20260505070137 51 97 0.9 1.7 0.00 0.00 0.00 87 1015.2
20260505065633 51 103 0.9 1.7 0.00 0.00 0.00 86 1015.3
20260505065130 51 94 0.9 1.7 0.00 0.00 0.00 86 1015.3
20260505064627 51 89 0.9 1.7 0.00 0.00 0.00 86 1015.3
20260505064125 51 88 1.7 1.7 0.00 0.00 0.00 86 1015.1
20260505063622 51 89 0.0 1.7 0.00 0.00 0.00 85 1015.3
20260505063118 51 99 0.9 1.7 0.00 0.00 0.00 85 1015.4
20260505062615 51 89 0.9 1.7 0.00 0.00 0.00 85 1015.5
20260505062112 51 96 0.9 1.7 0.00 0.00 0.00 85 1015.5
20260505061609 52 111 0.9 1.7 0.00 0.00 0.00 84 1015.6
20260505061107 52 124 1.7 1.7 0.00 0.00 0.00 84 1015.4
20260505060604 52 93 0.9 1.7 0.00 0.00 0.00 83 1015.4
20260505055556 52 96 1.7 1.7 0.00 0.00 0.00 82 1015.5
20260505055053 53 104 0.9 1.7 0.00 0.00 0.00 82 1015.5
20260505054550 53 96 0.9 1.7 0.00 0.00 0.00 81 1015.7
20260505054049 53 49 0.0 0.9 0.00 0.00 0.00 81 1015.7
20260505053545 53 108 0.9 1.7 0.00 0.00 0.00 80 1015.6
20260505053042 53 111 0.0 1.7 0.00 0.00 0.00 80 1015.7
20260505052539 53 95 0.9 1.7 0.00 0.00 0.00 80 1015.6
20260505052037 54 100 0.9 1.7 0.00 0.00 0.00 79 1015.6
20260505051533 54 102 1.7 1.7 0.00 0.00 0.00 78 1015.6
20260505051031 54 71 0.9 1.7 0.00 0.00 0.00 78 1015.6
20260505050529 54 55 0.0 1.7 0.00 0.00 0.00 78 1015.4